Preview of NWS' New Version of Forecast
This preview is not operational and should not be used for support decisions.

Regional Weather Roundup (RWR)

Issued by National Weather Service (NWS)

                            
000
ASUS45 KABQ 212310
RWRNM 
NEW MEXICO REGIONAL WEATHER ROUNDUP
NATIONAL WEATHER SERVICE ALBUQUERQUE NM
500 PM MDT SUN APR 21 2019

NOTE: "FAIR" MEANS FEW OR NO CLOUDS BELOW 12,000 FEET AGL WITH NO
       SIGNIFICANT WEATHER OR OBSTRUCTIONS TO VISION.

      THIS PRODUCT IS RELEASED AS TWO VERSIONS.  ONE VERSION NEAR
      THE TOP OF THE HOUR CONTAINING PRELIMINARY DATA FROM ALBUQUERQUE
      AND OTHER STATIONS.  A FINAL VERSION WITH ADDITIONAL DATA IS 
      ISSUED ABOUT 10 MINUTES AFTER THE HOUR.
 
NMZ501-503-504-510>518-220000-
NORTHWEST PLATEAU/NORTHCENTRAL MOUNTAINS
  
CITY           SKY/WX    TMP DP  RH WIND       PRES   REMARKS
FARMINGTON     FAIR      72  19  13 W14G24    29.88S                  
LOS ALAMOS       N/A     64  15  15 SW12G18   30.01R                  
SANTA FE       FAIR      71  20  14 SW21G32   29.96S                  
TAOS           FAIR      67  14  13 W13G25    30.01R                  
ANGEL FIRE       N/A     58  17  20 W21G29    30.05R                  

$$
NMZ402-403-502-505>509-220000-
WESTCENTRAL MOUNTAINS/SOUTHWEST MOUNTAINS
  
CITY           SKY/WX    TMP DP  RH WIND       PRES   REMARKS
GALLUP         FAIR      67  19  16 SW15G25   29.96F                  
GRANTS         FAIR      70  14  12 SW18G28   29.98S                  
SILVER CITY    FAIR      75  24  14 W16       29.98F                  

$$
NMZ407-409-411-412-220000-
SOUTHERN DESERTS
  
CITY           SKY/WX    TMP DP  RH WIND       PRES   REMARKS
DEMING         FAIR      82  23  11 W14G20    29.91F                  
LAS CRUCES     FAIR      83  23  11 W12       29.92F                  
HOLLOMAN AFB   FAIR      83  21  10 SW18G25   29.90F                  
ALAMOGORDO     FAIR      82  19   9 SW20G26   29.91S                  
T OR C         FAIR      83  10   6 W20G29    29.88S                  

$$
NMZ519>523-220000-
CENTRAL VALLEYS/CENTRAL HIGHLANDS
  
CITY           SKY/WX    TMP DP  RH WIND       PRES   REMARKS
ALBUQUERQUE    FAIR      74  22  14 S8        29.90F                  
DOUBLE EAGLE   MOSUNNY   73  23  15 SW14G25   29.92F                  
MORIARTY ARPT  FAIR      74  19  13 W9G23     29.98S                  
CLINES CORNERS FAIR      68  17  14 W23G35    30.01S                  
BELEN          FAIR      77  19  11 SW10G17   29.88F                  
SOCORRO        FAIR      82  16   8 SW12      29.85S                  

$$
NMZ524>526-539-540-220000-
SOUTHCENTRAL MOUNTAINS
  
CITY           SKY/WX    TMP DP  RH WIND       PRES   REMARKS
RUIDOSO        FAIR      70  18  13 W14G21    30.03S                  

$$
NMZ527>531-220000-
NORTHEAST HIGHLANDS/NORTHEAST PLAINS
  
CITY           SKY/WX    TMP DP  RH WIND       PRES   REMARKS
LAS VEGAS      FAIR      68  20  16 SW22G37   29.97R                  
RATON          FAIR      72  16  12 NW14G26   29.88S                  
CLAYTON        FAIR      76  23  14 SW14G25   29.80S                  

$$
NMZ532>537-220000-
EASTCENTRAL PLAINS
  
CITY           SKY/WX    TMP DP  RH WIND       PRES   REMARKS
SANTA ROSA     FAIR      80  19  10 SW23      29.86S                  
TUCUMCARI      FAIR      84  25  11 W25G37    29.79R                  
CANNON AFB     FAIR      82  23  11 W16G25    29.86R                  
CLOVIS AIRPORT FAIR      83  25  12 W15G22    29.85S                  

$$
NMZ028-029-538-220000-
SOUTHEAST PLAINS
  
CITY           SKY/WX    TMP DP  RH WIND       PRES   REMARKS
ROSWELL        FAIR      90  16   6 VRB7G24   29.79S                  
ARTESIA        FAIR      88  25  10 W22G36    29.81S                  
CARLSBAD       FAIR      88  27  11 W20G28    29.82S                  
HOBBS          SUNNY     88  18   7 SW18G28   29.86S                  


$$